Погода в Латынине

Россия / Калужская область     54°43′04″N   36°51′51″E
темп.,
°C
ветер,
м/с
пор.,
м/с
влажн.,
%
обл.,
%
осадки,
мм/ч
давл.,
гПа
погр.,
м
25 февраля, чт
чт2500:00−11юз3895100 0.1 1028300
03:00−8юз4995100 0.1 1025293
06:00−4зюз61595100 0.1 1020555
09:00+1зюз514100100 0.3 1017580
12:00+3зсз514100100 0.2 1015480
15:00+3зсз411100100 0.2 1016314
18:00+2з410100100 0.1 1016273
21:00+2зсз310100100 0.1 1016250
26 февраля, пт
пт2600:00+2з41199100 0.2 1015310
03:00+3з51499100 0.6 1014373
06:00+2з51298100 0.1 1013408
09:00+2зюз61299100 0.1 1011434
12:00+2з61499100 0.1 1009731
15:00+3з61699100 0.2 1007619
18:00+2з5149298 0.1 1007906
21:00+2з5139095 0.1 1007904
27 февраля, сб
сб2700:00+1з5129094 0.0 1005858
03:00+1зсз5129597 0.1 1006749
06:000зсз5129599 0.0 1004572
09:000зсз51197100 0.1 1005703
12:000сз5119897 0.1 1006769
15:00+1ссз5109199 0.2 1008895
18:00−3ссз4118887 0.1 1010560
21:00−6с3109253 0.1 1013517
28 февраля, вс
вс2800:00−7с3109479 0.0 1014499
03:00−8ссз399584 0.0 1017403
06:00−7ссз3109586 0.1 1017514
09:00−5с499385 0.3 1018603
12:00−3ссз478894 0.1 1018673
15:00−3ссз478797 0.1 1019866
18:00−3ссз3789100 0.1 1020446
21:00−4с3791100 0.1 1022440
1 марта, пн
пн100:00−5с2793100 0.1 1023397
03:00−7с1296100 0.1 102431
06:00−8ссз119393 0.0 102621
09:00−7ююз119368 0.0 102735
12:00−3зюз248211 0.0 1027532
15:00−2з368536 0.0 1027612
18:00−3зюз389360 0.0 1026223
21:00−1зюз499380 0.0 1025376